TimeCST,TemperatureF,Dew PointF,Humidity,Sea Level PressureIn,VisibilityMPH,Wind Direction,Wind SpeedMPH,Gust SpeedMPH,PrecipitationIn,Events,Conditions,WindDirDegrees,DateUTC
12:53 AM,27.0,18.0,69,30.39,10.0,NE,5.8,-,N/A,,Clear,40,2012-12-05 06:53:00
1:53 AM,26.1,18.0,71,30.40,10.0,NE,3.5,-,N/A,,Clear,40,2012-12-05 07:53:00
2:53 AM,26.1,18.0,71,30.40,10.0,ENE,3.5,-,N/A,,Clear,60,2012-12-05 08:53:00
3:53 AM,25.0,17.1,72,30.38,10.0,Calm,Calm,-,N/A,,Clear,0,2012-12-05 09:53:00
4:53 AM,23.0,17.1,78,30.39,10.0,Calm,Calm,-,N/A,,Clear,0,2012-12-05 10:53:00
5:53 AM,23.0,17.1,78,30.39,10.0,Calm,Calm,-,N/A,,Clear,0,2012-12-05 11:53:00
6:53 AM,21.9,17.1,82,30.39,10.0,East,4.6,-,N/A,,Clear,90,2012-12-05 12:53:00
8:53 AM,27.0,19.9,75,30.37,10.0,SE,9.2,-,N/A,,Clear,130,2012-12-05 14:53:00
9:53 AM,30.9,21.9,69,30.37,10.0,SE,12.7,-,N/A,,Clear,130,2012-12-05 15:53:00
10:53 AM,36.0,23.0,59,30.34,10.0,SE,11.5,-,N/A,,Clear,140,2012-12-05 16:53:00
11:53 AM,37.9,24.1,57,30.29,10.0,SSE,13.8,20.7,N/A,,Clear,150,2012-12-05 17:53:00
12:53 PM,39.9,26.1,58,-9999,10.0,SSE,13.8,-,N/A,,Clear,150,2012-12-05 18:53:00
1:53 PM,42.1,26.1,53,30.20,10.0,SE,12.7,20.7,N/A,,Clear,140,2012-12-05 19:53:00
2:53 PM,42.1,27.0,55,30.17,10.0,SE,13.8,-,N/A,,Clear,140,2012-12-05 20:53:00
3:53 PM,42.1,28.0,58,30.15,10.0,SE,11.5,20.7,N/A,,Clear,140,2012-12-05 21:53:00
4:53 PM,41.0,27.0,57,30.13,10.0,SE,15.0,-,N/A,,Clear,140,2012-12-05 22:53:00
5:53 PM,41.0,28.0,60,30.12,10.0,SE,17.3,24.2,N/A,,Clear,140,2012-12-05 23:53:00
6:53 PM,41.0,28.0,60,30.07,10.0,SE,17.3,23.0,N/A,,Clear,140,2012-12-06 00:53:00
7:53 PM,39.9,30.0,68,30.07,10.0,SSE,13.8,-,N/A,,Scattered Clouds,150,2012-12-06 01:53:00
8:53 PM,39.9,30.9,70,30.04,10.0,SSE,12.7,-,N/A,,Partly Cloudy,150,2012-12-06 02:53:00
9:53 PM,41.0,32.0,70,30.02,10.0,SSE,11.5,20.7,N/A,,Mostly Cloudy,150,2012-12-06 03:53:00
10:53 PM,42.1,33.1,70,30.01,10.0,SSE,13.8,21.9,N/A,,Scattered Clouds,150,2012-12-06 04:53:00
11:53 PM,43.0,34.0,71,30.00,10.0,SSE,13.8,-,N/A,,Overcast,160,2012-12-06 05:53:00